| time (UTC) | temp C | wind direction | speed KPH | gust KPH | rain 1hr cm | rain 24hr cm | rain mn cm | humidity % | barometer mb |
| 20260902185030 | 34 | 51 | 0.0 | 6.4 | 0.00 | 0.00 | 0.00 | 50 | 1018.6 |
| 20260902184543 | 34 | 0 | 1.6 | 8.0 | 0.00 | 0.00 | 0.00 | 49 | 1018.6 |
| 20260902184032 | 34 | 56 | 3.2 | 8.0 | 0.00 | 0.00 | 0.00 | 49 | 1018.7 |
| 20260902183529 | 34 | 40 | 3.2 | 8.0 | 0.00 | 0.00 | 0.00 | 50 | 1018.7 |
| 20260902183054 | 34 | 0 | 1.6 | 8.0 | 0.00 | 0.00 | 0.00 | 51 | 1018.7 |
| 20260902182532 | 34 | 226 | 4.8 | 8.0 | 0.00 | 0.00 | 0.00 | 51 | 1018.8 |
| 20260902182028 | 34 | 153 | 4.8 | 8.0 | 0.00 | 0.00 | 0.00 | 52 | 1018.8 |
| 20260902181603 | 33 | 0 | 3.2 | 9.7 | 0.00 | 0.00 | 0.00 | 51 | 1018.8 |
| 20260902181034 | 34 | 205 | 3.2 | 14.5 | 0.00 | 0.00 | 0.00 | 52 | 1018.9 |
| 20260902180531 | 34 | 292 | 4.8 | 16.1 | 0.00 | 0.00 | 0.00 | 51 | 1018.8 |
| 20260902180108 | 35 | 331 | 4.8 | 16.1 | 0.00 | 0.00 | 0.00 | 50 | 1018.9 |
| 20260902175534 | 35 | 5 | 4.8 | 12.9 | 0.00 | 0.00 | 0.00 | 48 | 1018.9 |
| 20260902175031 | 35 | 35 | 3.2 | 16.1 | 0.00 | 0.00 | 0.00 | 47 | 1018.9 |
| 20260902174556 | 35 | 44 | 6.4 | 16.1 | 0.00 | 0.00 | 0.00 | 47 | 1019.1 |
| 20260902174031 | 35 | 196 | 6.4 | 12.9 | 0.00 | 0.00 | 0.00 | 48 | 1019.1 |
| 20260902173531 | 35 | 340 | 1.6 | 8.0 | 0.00 | 0.00 | 0.00 | 50 | 1019.2 |
| 20260902173043 | 35 | 33 | 3.2 | 14.5 | 0.00 | 0.00 | 0.00 | 49 | 1019.3 |
| 20260902172529 | 35 | 5 | 6.4 | 14.5 | 0.00 | 0.00 | 0.00 | 50 | 1019.4 |
| 20260902172028 | 35 | 334 | 3.2 | 11.3 | 0.00 | 0.00 | 0.00 | 50 | 1019.5 |
| 20260902171547 | 35 | 111 | 3.2 | 6.4 | 0.00 | 0.00 | 0.00 | 51 | 1019.6 |
| 20260902171029 | 35 | 0 | 0.0 | 6.4 | 0.00 | 0.00 | 0.00 | 52 | 1019.7 |
| 20260902170531 | 35 | 0 | 1.6 | 12.9 | 0.00 | 0.00 | 0.00 | 51 | 1019.7 |
| 20260902170049 | 35 | 331 | 6.4 | 12.9 | 0.00 | 0.00 | 0.00 | 51 | 1019.8 |
| 20260902165531 | 35 | 315 | 1.6 | 9.7 | 0.00 | 0.00 | 0.00 | 51 | 1019.8 |
| 20260902165031 | 35 | 0 | 3.2 | 12.9 | 0.00 | 0.00 | 0.00 | 51 | 1019.7 |
| 20260902164547 | 35 | 323 | 4.8 | 12.9 | 0.00 | 0.00 | 0.00 | 52 | 1019.9 |
| 20260902164031 | 35 | 298 | 1.6 | 12.9 | 0.00 | 0.00 | 0.00 | 53 | 1019.9 |
| 20260902163529 | 35 | 49 | 4.8 | 9.7 | 0.00 | 0.00 | 0.00 | 53 | 1020.0 |
| 20260902163043 | 34 | 53 | 1.6 | 9.7 | 0.00 | 0.00 | 0.00 | 54 | 1020.0 |
| 20260902162527 | 34 | 34 | 1.6 | 9.7 | 0.00 | 0.00 | 0.00 | 56 | 1020.0 |
| 20260902162031 | 34 | 47 | 3.2 | 9.7 | 0.00 | 0.00 | 0.00 | 57 | 1020.1 |
| 20260902161556 | 33 | 78 | 1.6 | 11.3 | 0.00 | 0.00 | 0.00 | 59 | 1020.2 |
| 20260902161028 | 33 | 67 | 1.6 | 11.3 | 0.00 | 0.00 | 0.00 | 59 | 1020.1 |
| 20260902160527 | 33 | 17 | 3.2 | 9.7 | 0.00 | 0.00 | 0.00 | 60 | 1020.2 |
| 20260902160041 | 32 | 138 | 1.6 | 9.7 | 0.00 | 0.00 | 0.00 | 62 | 1020.2 |
| 20260902155533 | 32 | 284 | 1.6 | 8.0 | 0.00 | 0.00 | 0.00 | 63 | 1020.3 |
| 20260902155029 | 32 | 304 | 3.2 | 8.0 | 0.00 | 0.00 | 0.00 | 63 | 1020.3 |
| 20260902154546 | 32 | 329 | 3.2 | 8.0 | 0.00 | 0.00 | 0.00 | 63 | 1020.3 |
| 20260902154031 | 32 | 67 | 3.2 | 9.7 | 0.00 | 0.00 | 0.00 | 64 | 1020.4 |
| 20260902153530 | 32 | 36 | 3.2 | 9.7 | 0.00 | 0.00 | 0.00 | 65 | 1020.5 |
| 20260902153051 | 31 | 213 | 1.6 | 6.4 | 0.00 | 0.00 | 0.00 | 66 | 1020.4 |
| 20260902152535 | 31 | 0 | 3.2 | 9.7 | 0.00 | 0.00 | 0.00 | 66 | 1020.4 |
| 20260902152031 | 31 | 0 | 1.6 | 9.7 | 0.00 | 0.00 | 0.00 | 67 | 1020.5 |
| 20260902151550 | 31 | 280 | 3.2 | 8.0 | 0.00 | 0.00 | 0.00 | 68 | 1020.5 |
| 20260902151033 | 31 | 0 | 3.2 | 8.0 | 0.00 | 0.00 | 0.00 | 69 | 1020.4 |
| 20260902150531 | 30 | 66 | 1.6 | 8.0 | 0.00 | 0.00 | 0.00 | 71 | 1020.5 |
| 20260902150051 | 30 | 342 | 3.2 | 8.0 | 0.00 | 0.00 | 0.00 | 70 | 1020.5 |
| 20260902145532 | 30 | 0 | 0.0 | 4.8 | 0.00 | 0.00 | 0.00 | 73 | 1020.5 |
| 20260902145034 | 29 | 178 | 1.6 | 4.8 | 0.00 | 0.00 | 0.00 | 73 | 1020.4 |
| 20260902144601 | 29 | 47 | 0.0 | 8.0 | 0.00 | 0.00 | 0.00 | 73 | 1020.5 |
| 20260902144032 | 29 | 0 | 3.2 | 8.0 | 0.00 | 0.00 | 0.00 | 73 | 1020.5 |
| 20260902143532 | 29 | 65 | 3.2 | 8.0 | 0.00 | 0.00 | 0.00 | 74 | 1020.4 |
| 20260902143053 | 29 | 0 | 1.6 | 6.4 | 0.00 | 0.00 | 0.00 | 75 | 1020.4 |
| 20260902142531 | 28 | 10 | 1.6 | 6.4 | 0.00 | 0.00 | 0.00 | 76 | 1020.4 |
| 20260902142033 | 28 | 340 | 0.0 | 6.4 | 0.00 | 0.00 | 0.00 | 77 | 1020.4 |
| 20260902141545 | 28 | 341 | 3.2 | 6.4 | 0.00 | 0.00 | 0.00 | 77 | 1020.3 |
| 20260902141035 | 28 | 0 | 1.6 | 6.4 | 0.00 | 0.00 | 0.00 | 79 | 1020.4 |
| 20260902140532 | 28 | 0 | 0.0 | 4.8 | 0.00 | 0.00 | 0.00 | 80 | 1020.4 |
| 20260902140055 | 27 | 0 | 1.6 | 4.8 | 0.00 | 0.00 | 0.00 | 81 | 1020.3 |
| 20260902135532 | 27 | 52 | 0.0 | 4.8 | 0.00 | 0.00 | 0.00 | 82 | 1020.3 |
| 20260902135030 | 27 | 57 | 1.6 | 4.8 | 0.00 | 0.00 | 0.00 | 82 | 1020.5 |
| 20260902134549 | 27 | 67 | 1.6 | 6.4 | 0.00 | 0.00 | 0.00 | 83 | 1020.4 |
| 20260902134033 | 27 | 69 | 1.6 | 6.4 | 0.00 | 0.00 | 0.00 | 84 | 1020.4 |
| 20260902133532 | 26 | 0 | 1.6 | 6.4 | 0.00 | 0.00 | 0.00 | 85 | 1020.5 |
| 20260902133054 | 26 | 0 | 0.0 | 6.4 | 0.00 | 0.00 | 0.00 | 86 | 1020.4 |
| 20260902132532 | 26 | 0 | 0.0 | 6.4 | 0.00 | 0.00 | 0.00 | 86 | 1020.5 |
| 20260902132033 | 26 | 76 | 1.6 | 6.4 | 0.00 | 0.00 | 0.00 | 87 | 1020.5 |
| 20260902131548 | 25 | 66 | 1.6 | 6.4 | 0.00 | 0.00 | 0.00 | 88 | 1020.6 |
| 20260902131034 | 25 | 46 | 1.6 | 4.8 | 0.00 | 0.00 | 0.00 | 89 | 1020.5 |
| 20260902130532 | 25 | 46 | 1.6 | 4.8 | 0.00 | 0.00 | 0.00 | 89 | 1020.4 |
| 20260902125535 | 24 | 0 | 0.0 | 3.2 | 0.00 | 0.00 | 0.00 | 90 | 1020.4 |
| 20260902125034 | 24 | 0 | 0.0 | 3.2 | 0.00 | 0.00 | 0.00 | 90 | 1020.4 |
| 20260902124549 | 23 | 0 | 0.0 | 3.2 | 0.00 | 0.00 | 0.00 | 91 | 1020.4 |
| 20260902124031 | 23 | 43 | 0.0 | 3.2 | 0.00 | 0.00 | 0.00 | 91 | 1020.4 |
| 20260902123545 | 23 | 43 | 1.6 | 4.8 | 0.00 | 0.00 | 0.00 | 91 | 1020.3 |
| 20260902123052 | 23 | 40 | 0.0 | 4.8 | 0.00 | 0.00 | 0.00 | 92 | 1020.4 |
| 20260902122531 | 23 | 0 | 1.6 | 4.8 | 0.00 | 0.00 | 0.00 | 92 | 1020.3 |
| 20260902122031 | 23 | 36 | 0.0 | 4.8 | 0.00 | 0.00 | 0.00 | 92 | 1020.3 |
| 20260902121546 | 23 | 0 | 0.0 | 4.8 | 0.00 | 0.00 | 0.00 | 92 | 1020.3 |
| 20260902121034 | 22 | 30 | 0.0 | 4.8 | 0.00 | 0.00 | 0.00 | 92 | 1020.1 |
| 20260902120533 | 22 | 30 | 0.0 | 3.2 | 0.00 | 0.00 | 0.00 | 92 | 1020.0 |
| 20260902120052 | 22 | 30 | 1.6 | 3.2 | 0.00 | 0.00 | 0.00 | 92 | 1020.0 |
| 20260902115535 | 22 | 31 | 1.6 | 3.2 | 0.00 | 0.00 | 0.00 | 92 | 1020.0 |
| 20260902115030 | 22 | 0 | 0.0 | 0.0 | 0.00 | 0.00 | 0.00 | 92 | 1019.9 |
| 20260902114551 | 22 | 0 | 0.0 | 0.0 | 0.00 | 0.00 | 0.00 | 91 | 1019.8 |
| 20260902114036 | 22 | 0 | 0.0 | 0.0 | 0.00 | 0.00 | 0.00 | 91 | 1019.8 |
| 20260902113531 | 22 | 0 | 0.0 | 0.0 | 0.00 | 0.00 | 0.00 | 91 | 1019.6 |
| 20260902113053 | 22 | 0 | 0.0 | 0.0 | 0.00 | 0.00 | 0.00 | 91 | 1019.6 |
| 20260902112531 | 22 | 0 | 0.0 | 0.0 | 0.00 | 0.00 | 0.00 | 91 | 1019.6 |
| 20260902112031 | 22 | 0 | 0.0 | 0.0 | 0.00 | 0.00 | 0.00 | 91 | 1019.5 |
| 20260902111549 | 22 | 0 | 0.0 | 0.0 | 0.00 | 0.00 | 0.00 | 92 | 1019.5 |
| 20260902111033 | 22 | 0 | 0.0 | 0.0 | 0.00 | 0.00 | 0.00 | 92 | 1019.4 |
| 20260902110530 | 22 | 0 | 0.0 | 0.0 | 0.00 | 0.00 | 0.00 | 92 | 1019.4 |
| 20260902110044 | 22 | 0 | 0.0 | 0.0 | 0.00 | 0.00 | 0.00 | 92 | 1019.4 |
| 20260902105530 | 22 | 0 | 0.0 | 0.0 | 0.00 | 0.00 | 0.00 | 91 | 1019.4 |
| 20260902105030 | 22 | 0 | 0.0 | 0.0 | 0.00 | 0.00 | 0.00 | 91 | 1019.4 |
| 20260902104550 | 22 | 0 | 0.0 | 0.0 | 0.00 | 0.00 | 0.00 | 91 | 1019.4 |
| 20260902104032 | 22 | 0 | 0.0 | 0.0 | 0.00 | 0.00 | 0.00 | 91 | 1019.4 |
| 20260902103532 | 22 | 0 | 0.0 | 0.0 | 0.00 | 0.00 | 0.00 | 91 | 1019.4 |
| 20260902103047 | 22 | 0 | 0.0 | 0.0 | 0.00 | 0.00 | 0.00 | 91 | 1019.3 |
| 20260902102532 | 22 | 0 | 0.0 | 0.0 | 0.00 | 0.00 | 0.00 | 91 | 1019.3 |
| 20260902102029 | 22 | 0 | 0.0 | 0.0 | 0.00 | 0.00 | 0.00 | 91 | 1019.2 |
| 20260902101541 | 22 | 0 | 0.0 | 0.0 | 0.00 | 0.00 | 0.00 | 91 | 1019.2 |
| 20260902101029 | 22 | 0 | 0.0 | 1.6 | 0.00 | 0.00 | 0.00 | 90 | 1019.1 |
| 20260902100531 | 23 | 0 | 0.0 | 1.6 | 0.00 | 0.00 | 0.00 | 91 | 1019.1 |
| 20260902100101 | 22 | 0 | 0.0 | 0.0 | 0.00 | 0.00 | 0.00 | 91 | 1019.2 |
| 20260902095533 | 23 | 0 | 0.0 | 0.0 | 0.00 | 0.00 | 0.00 | 90 | 1019.2 |
| 20260902095030 | 23 | 0 | 0.0 | 0.0 | 0.00 | 0.00 | 0.00 | 90 | 1019.2 |
| 20260902094607 | 23 | 0 | 0.0 | 0.0 | 0.00 | 0.00 | 0.00 | 90 | 1019.1 |
| 20260902094032 | 23 | 0 | 0.0 | 0.0 | 0.00 | 0.00 | 0.00 | 90 | 1019.0 |
| 20260902093529 | 23 | 0 | 0.0 | 1.6 | 0.00 | 0.00 | 0.00 | 90 | 1018.9 |
| 20260902093052 | 23 | 0 | 0.0 | 3.2 | 0.00 | 0.00 | 0.00 | 91 | 1019.0 |
| 20260902092532 | 23 | 0 | 0.0 | 3.2 | 0.00 | 0.00 | 0.00 | 91 | 1019.0 |
| 20260902092031 | 23 | 0 | 0.0 | 3.2 | 0.00 | 0.00 | 0.00 | 91 | 1018.9 |
| 20260902091559 | 23 | 0 | 0.0 | 0.0 | 0.00 | 0.00 | 0.00 | 90 | 1018.8 |
| 20260902091033 | 23 | 0 | 0.0 | 3.2 | 0.00 | 0.00 | 0.00 | 90 | 1018.7 |
| 20260902090530 | 23 | 0 | 0.0 | 4.8 | 0.00 | 0.00 | 0.00 | 90 | 1018.7 |
| 20260902090051 | 23 | 0 | 1.6 | 4.8 | 0.00 | 0.00 | 0.00 | 90 | 1018.6 |
| 20260902085532 | 23 | 30 | 1.6 | 4.8 | 0.00 | 0.00 | 0.00 | 90 | 1018.7 |
| 20260902085033 | 23 | 0 | 0.0 | 1.6 | 0.00 | 0.00 | 0.00 | 90 | 1018.6 |
| 20260902084543 | 23 | 0 | 0.0 | 0.0 | 0.00 | 0.00 | 0.00 | 90 | 1018.6 |
| 20260902084031 | 23 | 0 | 0.0 | 0.0 | 0.00 | 0.00 | 0.00 | 90 | 1018.6 |
| 20260902083531 | 23 | 0 | 0.0 | 0.0 | 0.00 | 0.00 | 0.00 | 90 | 1018.5 |
| 20260902083052 | 23 | 0 | 0.0 | 0.0 | 0.00 | 0.00 | 0.00 | 90 | 1018.4 |
| 20260902082531 | 23 | 0 | 0.0 | 0.0 | 0.00 | 0.00 | 0.00 | 90 | 1018.4 |
| 20260902082034 | 23 | 0 | 0.0 | 0.0 | 0.00 | 0.00 | 0.00 | 90 | 1018.4 |
| 20260902081551 | 23 | 0 | 0.0 | 0.0 | 0.00 | 0.00 | 0.00 | 89 | 1018.3 |
| 20260902081031 | 23 | 0 | 0.0 | 0.0 | 0.00 | 0.00 | 0.00 | 89 | 1018.2 |
| 20260902080533 | 23 | 0 | 0.0 | 0.0 | 0.00 | 0.00 | 0.00 | 89 | 1018.2 |
| 20260902080111 | 23 | 0 | 0.0 | 0.0 | 0.00 | 0.00 | 0.00 | 89 | 1018.1 |
| 20260902075533 | 23 | 0 | 0.0 | 0.0 | 0.00 | 0.00 | 0.00 | 89 | 1018.2 |
| 20260902075030 | 23 | 0 | 0.0 | 0.0 | 0.00 | 0.00 | 0.00 | 89 | 1018.2 |
| 20260902074548 | 23 | 0 | 0.0 | 0.0 | 0.00 | 0.00 | 0.00 | 89 | 1018.2 |
| 20260902074028 | 23 | 0 | 0.0 | 0.0 | 0.00 | 0.00 | 0.00 | 89 | 1018.2 |
| 20260902073533 | 23 | 0 | 0.0 | 0.0 | 0.00 | 0.00 | 0.00 | 89 | 1018.2 |
| 20260902073048 | 23 | 0 | 0.0 | 0.0 | 0.00 | 0.00 | 0.00 | 89 | 1018.3 |
| 20260902072530 | 23 | 0 | 0.0 | 0.0 | 0.00 | 0.00 | 0.00 | 89 | 1018.3 |
| 20260902072033 | 23 | 0 | 0.0 | 0.0 | 0.00 | 0.00 | 0.00 | 88 | 1018.4 |
| 20260902071546 | 23 | 0 | 0.0 | 0.0 | 0.00 | 0.00 | 0.00 | 88 | 1018.3 |
| 20260902071031 | 23 | 0 | 0.0 | 0.0 | 0.00 | 0.00 | 0.00 | 88 | 1018.4 |
| 20260902070532 | 23 | 0 | 0.0 | 0.0 | 0.00 | 0.00 | 0.00 | 88 | 1018.3 |
| 20260902070100 | 23 | 0 | 0.0 | 0.0 | 0.00 | 0.00 | 0.00 | 88 | 1018.5 |
| 20260902065529 | 23 | 0 | 0.0 | 0.0 | 0.00 | 0.00 | 0.00 | 88 | 1018.4 |
| 20260902065030 | 23 | 0 | 0.0 | 0.0 | 0.00 | 0.00 | 0.00 | 88 | 1018.4 |
| 20260902064605 | 23 | 0 | 0.0 | 0.0 | 0.00 | 0.00 | 0.00 | 87 | 1018.5 |
| 20260902064033 | 23 | 0 | 0.0 | 0.0 | 0.00 | 0.00 | 0.00 | 87 | 1018.5 |
| 20260902063536 | 23 | 0 | 0.0 | 0.0 | 0.00 | 0.00 | 0.00 | 87 | 1018.6 |
| 20260902063048 | 23 | 0 | 0.0 | 0.0 | 0.00 | 0.00 | 0.00 | 87 | 1018.6 |
| 20260902062533 | 24 | 0 | 0.0 | 0.0 | 0.00 | 0.00 | 0.00 | 87 | 1018.6 |
| 20260902062029 | 24 | 0 | 0.0 | 0.0 | 0.00 | 0.00 | 0.00 | 87 | 1018.6 |
| 20260902061554 | 24 | 0 | 0.0 | 0.0 | 0.00 | 0.00 | 0.00 | 87 | 1018.6 |
| 20260902061036 | 24 | 0 | 0.0 | 0.0 | 0.00 | 0.00 | 0.00 | 86 | 1018.6 |
| 20260902060532 | 24 | 0 | 0.0 | 0.0 | 0.00 | 0.00 | 0.00 | 86 | 1018.6 |
| 20260902060046 | 24 | 0 | 0.0 | 0.0 | 0.00 | 0.00 | 0.00 | 86 | 1018.6 |
| 20260902055533 | 24 | 0 | 0.0 | 1.6 | 0.00 | 0.00 | 0.00 | 86 | 1018.6 |
| 20260902055029 | 24 | 0 | 0.0 | 1.6 | 0.00 | 0.00 | 0.00 | 86 | 1018.6 |
| 20260902054542 | 24 | 37 | 0.0 | 1.6 | 0.00 | 0.00 | 0.00 | 86 | 1018.6 |
| 20260902054032 | 24 | 0 | 0.0 | 0.0 | 0.00 | 0.00 | 0.00 | 86 | 1018.7 |
| 20260902053532 | 24 | 0 | 0.0 | 0.0 | 0.00 | 0.00 | 0.00 | 85 | 1018.7 |
| 20260902053058 | 25 | 0 | 0.0 | 0.0 | 0.00 | 0.00 | 0.00 | 85 | 1018.6 |
| 20260902052531 | 25 | 0 | 0.0 | 0.0 | 0.00 | 0.00 | 0.00 | 85 | 1018.7 |
| 20260902052032 | 25 | 0 | 0.0 | 0.0 | 0.00 | 0.00 | 0.00 | 85 | 1018.8 |
| 20260902051551 | 25 | 0 | 0.0 | 0.0 | 0.00 | 0.00 | 0.00 | 85 | 1018.8 |
| 20260902051033 | 25 | 0 | 0.0 | 0.0 | 0.00 | 0.00 | 0.00 | 84 | 1018.7 |
| 20260902050529 | 25 | 0 | 0.0 | 0.0 | 0.00 | 0.00 | 0.00 | 84 | 1018.8 |
| 20260902050053 | 25 | 0 | 0.0 | 0.0 | 0.00 | 0.00 | 0.00 | 84 | 1018.7 |
| 20260902045534 | 25 | 0 | 0.0 | 0.0 | 0.00 | 0.00 | 0.00 | 84 | 1018.7 |
| 20260902045032 | 25 | 0 | 0.0 | 0.0 | 0.00 | 0.00 | 0.00 | 84 | 1018.8 |
| 20260902044555 | 25 | 0 | 0.0 | 0.0 | 0.00 | 0.00 | 0.00 | 84 | 1018.8 |
| 20260902044034 | 25 | 0 | 0.0 | 0.0 | 0.00 | 0.00 | 0.00 | 83 | 1018.8 |
| 20260902043530 | 25 | 0 | 0.0 | 0.0 | 0.00 | 0.00 | 0.00 | 83 | 1018.8 |
| 20260902043051 | 25 | 0 | 0.0 | 0.0 | 0.00 | 0.00 | 0.00 | 83 | 1018.8 |
| 20260902042533 | 25 | 0 | 0.0 | 0.0 | 0.00 | 0.00 | 0.00 | 83 | 1018.7 |
| 20260902042032 | 25 | 0 | 0.0 | 3.2 | 0.00 | 0.00 | 0.00 | 82 | 1018.8 |
| 20260902041553 | 25 | 0 | 0.0 | 3.2 | 0.00 | 0.00 | 0.00 | 82 | 1018.8 |
| 20260902041031 | 25 | 37 | 0.0 | 3.2 | 0.00 | 0.00 | 0.00 | 82 | 1018.8 |
| 20260902040529 | 25 | 0 | 0.0 | 0.0 | 0.00 | 0.00 | 0.00 | 81 | 1018.7 |
| 20260902040046 | 25 | 0 | 0.0 | 0.0 | 0.00 | 0.00 | 0.00 | 81 | 1018.7 |
| 20260902035532 | 26 | 0 | 0.0 | 0.0 | 0.00 | 0.00 | 0.00 | 80 | 1018.8 |
| 20260902035032 | 26 | 0 | 0.0 | 0.0 | 0.00 | 0.00 | 0.00 | 80 | 1018.8 |
| 20260902034600 | 26 | 0 | 0.0 | 0.0 | 0.00 | 0.00 | 0.00 | 80 | 1018.8 |
| 20260902034032 | 26 | 0 | 0.0 | 0.0 | 0.00 | 0.00 | 0.00 | 80 | 1018.9 |
| 20260902033532 | 26 | 0 | 0.0 | 0.0 | 0.00 | 0.00 | 0.00 | 79 | 1018.8 |
| 20260902033057 | 26 | 0 | 0.0 | 0.0 | 0.00 | 0.00 | 0.00 | 78 | 1018.9 |
| 20260902032532 | 26 | 0 | 0.0 | 0.0 | 0.00 | 0.00 | 0.00 | 78 | 1018.8 |
| 20260902032033 | 26 | 0 | 0.0 | 0.0 | 0.00 | 0.00 | 0.00 | 78 | 1018.8 |
| 20260902031556 | 26 | 0 | 0.0 | 0.0 | 0.00 | 0.00 | 0.00 | 77 | 1018.8 |
| 20260902031030 | 26 | 0 | 0.0 | 0.0 | 0.00 | 0.00 | 0.00 | 77 | 1018.8 |
| 20260902030530 | 26 | 0 | 0.0 | 0.0 | 0.00 | 0.00 | 0.00 | 77 | 1018.7 |
| 20260902030047 | 26 | 0 | 0.0 | 0.0 | 0.00 | 0.00 | 0.00 | 77 | 1018.8 |
| 20260902025534 | 26 | 0 | 0.0 | 0.0 | 0.00 | 0.00 | 0.00 | 78 | 1018.8 |
| 20260902025034 | 26 | 0 | 0.0 | 0.0 | 0.00 | 0.00 | 0.00 | 78 | 1018.8 |
| 20260902024556 | 26 | 0 | 0.0 | 0.0 | 0.00 | 0.00 | 0.00 | 77 | 1018.7 |
| 20260902024032 | 26 | 0 | 0.0 | 0.0 | 0.00 | 0.00 | 0.00 | 77 | 1018.7 |
| 20260902023528 | 26 | 0 | 0.0 | 0.0 | 0.00 | 0.00 | 0.00 | 76 | 1018.8 |
| 20260902023043 | 26 | 0 | 0.0 | 0.0 | 0.00 | 0.00 | 0.00 | 76 | 1018.8 |
| 20260902022535 | 27 | 0 | 0.0 | 0.0 | 0.00 | 0.00 | 0.00 | 76 | 1018.7 |
| 20260902022032 | 27 | 0 | 0.0 | 0.0 | 0.00 | 0.00 | 0.00 | 76 | 1018.7 |
| 20260902021601 | 27 | 0 | 0.0 | 1.6 | 0.00 | 0.00 | 0.00 | 76 | 1018.7 |
| 20260902021032 | 27 | 0 | 0.0 | 1.6 | 0.00 | 0.00 | 0.00 | 76 | 1018.7 |
| 20260902020534 | 27 | 37 | 0.0 | 0.0 | 0.00 | 0.00 | 0.00 | 76 | 1018.6 |
| 20260902020048 | 27 | 0 | 0.0 | 0.0 | 0.00 | 0.00 | 0.00 | 75 | 1018.6 |
| 20260902015532 | 27 | 0 | 0.0 | 0.0 | 0.00 | 0.00 | 0.00 | 75 | 1018.4 |
| 20260902015031 | 27 | 0 | 0.0 | 0.0 | 0.00 | 0.00 | 0.00 | 75 | 1018.4 |
| 20260902014546 | 27 | 0 | 0.0 | 0.0 | 0.00 | 0.00 | 0.00 | 75 | 1018.4 |
| 20260902014034 | 27 | 0 | 0.0 | 0.0 | 0.00 | 0.00 | 0.00 | 75 | 1018.4 |
| 20260902013529 | 27 | 0 | 0.0 | 3.2 | 0.00 | 0.00 | 0.00 | 74 | 1018.3 |
| 20260902013050 | 27 | 0 | 0.0 | 3.2 | 0.00 | 0.00 | 0.00 | 74 | 1018.3 |
| 20260902012532 | 28 | 0 | 0.0 | 3.2 | 0.00 | 0.00 | 0.00 | 73 | 1018.2 |
| 20260902012033 | 28 | 0 | 0.0 | 0.0 | 0.00 | 0.00 | 0.00 | 72 | 1018.2 |
| 20260902011549 | 28 | 0 | 0.0 | 0.0 | 0.00 | 0.00 | 0.00 | 72 | 1018.2 |
| 20260902011030 | 28 | 0 | 0.0 | 0.0 | 0.00 | 0.00 | 0.00 | 71 | 1018.1 |
| 20260902010534 | 28 | 0 | 0.0 | 0.0 | 0.00 | 0.00 | 0.00 | 70 | 1017.9 |
| 20260902010051 | 28 | 0 | 0.0 | 0.0 | 0.00 | 0.00 | 0.00 | 70 | 1017.9 |
| 20260902005533 | 28 | 0 | 0.0 | 0.0 | 0.00 | 0.00 | 0.00 | 69 | 1017.9 |
| 20260902005033 | 29 | 0 | 0.0 | 0.0 | 0.00 | 0.00 | 0.00 | 68 | 1017.8 |
| 20260902004547 | 29 | 0 | 0.0 | 0.0 | 0.00 | 0.00 | 0.00 | 67 | 1017.8 |
| 20260902004030 | 29 | 0 | 0.0 | 1.6 | 0.00 | 0.00 | 0.00 | 66 | 1017.8 |
| 20260902003532 | 30 | 0 | 0.0 | 1.6 | 0.00 | 0.00 | 0.00 | 65 | 1017.7 |
| 20260902003054 | 30 | 0 | 0.0 | 0.0 | 0.00 | 0.00 | 0.00 | 64 | 1017.8 |
| 20260902002530 | 30 | 0 | 0.0 | 0.0 | 0.00 | 0.00 | 0.00 | 62 | 1017.8 |
| 20260902002031 | 30 | 0 | 0.0 | 0.0 | 0.00 | 0.00 | 0.00 | 62 | 1017.8 |
| 20260902001550 | 30 | 0 | 0.0 | 0.0 | 0.00 | 0.00 | 0.00 | 62 | 1017.8 |
| 20260902001032 | 31 | 0 | 0.0 | 0.0 | 0.00 | 0.00 | 0.00 | 61 | 1017.8 |
| 20260902000529 | 31 | 0 | 0.0 | 0.0 | 0.00 | 0.00 | 0.00 | 60 | 1017.8 |
| 20260902000054 | 31 | 0 | 0.0 | 0.0 | 0.00 | 0.00 | 0.00 | 59 | 1017.8 |
| 20260901235533 | 31 | 0 | 0.0 | 0.0 | 0.00 | 0.00 | 0.00 | 58 | 1017.8 |
| 20260901235033 | 32 | 0 | 0.0 | 0.0 | 0.00 | 0.00 | 0.00 | 58 | 1017.8 |
| 20260901234554 | 32 | 0 | 0.0 | 0.0 | 0.00 | 0.00 | 0.00 | 58 | 1017.8 |
| 20260901234032 | 32 | 0 | 0.0 | 0.0 | 0.00 | 0.00 | 0.00 | 58 | 1017.8 |
| 20260901233530 | 32 | 0 | 0.0 | 0.0 | 0.00 | 0.00 | 0.00 | 57 | 1017.8 |
| 20260901233047 | 32 | 0 | 0.0 | 1.6 | 0.00 | 0.00 | 0.00 | 57 | 1017.9 |
| 20260901232532 | 32 | 0 | 0.0 | 3.2 | 0.00 | 0.00 | 0.00 | 54 | 1017.9 |
| 20260901232030 | 32 | 0 | 0.0 | 3.2 | 0.00 | 0.00 | 0.00 | 53 | 1017.9 |
| 20260901231552 | 33 | 37 | 0.0 | 4.8 | 0.00 | 0.00 | 0.00 | 53 | 1017.9 |
| 20260901231030 | 33 | 0 | 1.6 | 6.4 | 0.00 | 0.00 | 0.00 | 52 | 1017.9 |
| 20260901230529 | 33 | 0 | 1.6 | 6.4 | 0.00 | 0.00 | 0.00 | 51 | 1017.9 |
| 20260901230042 | 33 | 43 | 1.6 | 6.4 | 0.00 | 0.00 | 0.00 | 51 | 1017.9 |
| 20260901225535 | 33 | 57 | 3.2 | 4.8 | 0.00 | 0.00 | 0.00 | 51 | 1017.9 |
| 20260901225032 | 33 | 32 | 1.6 | 4.8 | 0.00 | 0.00 | 0.00 | 50 | 1017.9 |
| 20260901224557 | 33 | 0 | 0.0 | 8.0 | 0.00 | 0.00 | 0.00 | 49 | 1017.9 |
| 20260901224030 | 33 | 11 | 3.2 | 8.0 | 0.00 | 0.00 | 0.00 | 49 | 1017.9 |
| 20260901223532 | 33 | 40 | 3.2 | 8.0 | 0.00 | 0.00 | 0.00 | 49 | 1017.9 |
| 20260901223045 | 33 | 30 | 3.2 | 8.0 | 0.00 | 0.00 | 0.00 | 49 | 1017.9 |
| 20260901222533 | 33 | 52 | 3.2 | 8.0 | 0.00 | 0.00 | 0.00 | 49 | 1017.8 |
| 20260901222029 | 33 | 15 | 4.8 | 8.0 | 0.00 | 0.00 | 0.00 | 49 | 1017.8 |
| 20260901221554 | 33 | 119 | 1.6 | 6.4 | 0.00 | 0.00 | 0.00 | 49 | 1017.7 |
| 20260901221032 | 33 | 52 | 3.2 | 8.0 | 0.00 | 0.00 | 0.00 | 48 | 1017.8 |
| 20260901220531 | 33 | 54 | 1.6 | 8.0 | 0.00 | 0.00 | 0.00 | 48 | 1017.6 |
| 20260901220050 | 34 | 98 | 1.6 | 14.5 | 0.00 | 0.00 | 0.00 | 48 | 1017.6 |
| 20260901215530 | 34 | 98 | 1.6 | 14.5 | 0.00 | 0.00 | 0.00 | 49 | 1017.6 |
| 20260901215034 | 33 | 32 | 3.2 | 14.5 | 0.00 | 0.00 | 0.00 | 48 | 1017.6 |
| 20260901214553 | 34 | 156 | 1.6 | 6.4 | 0.00 | 0.00 | 0.00 | 48 | 1017.6 |
| 20260901214033 | 34 | 162 | 3.2 | 9.7 | 0.00 | 0.00 | 0.00 | 47 | 1017.6 |
| 20260901213534 | 35 | 73 | 1.6 | 9.7 | 0.00 | 0.00 | 0.00 | 46 | 1017.7 |
| 20260901213049 | 35 | 46 | 4.8 | 9.7 | 0.00 | 0.00 | 0.00 | 47 | 1017.6 |
| 20260901212532 | 34 | 0 | 0.0 | 8.0 | 0.00 | 0.00 | 0.00 | 47 | 1017.7 |
| 20260901212030 | 35 | 30 | 1.6 | 8.0 | 0.00 | 0.00 | 0.00 | 47 | 1017.7 |
| 20260901211546 | 34 | 0 | 1.6 | 11.3 | 0.00 | 0.00 | 0.00 | 46 | 1017.8 |
| 20260901211033 | 34 | 44 | 3.2 | 12.9 | 0.00 | 0.00 | 0.00 | 47 | 1017.9 |
| 20260901210533 | 34 | 22 | 6.4 | 12.9 | 0.00 | 0.00 | 0.00 | 47 | 1017.8 |
| 20260901210043 | 34 | 336 | 0.0 | 6.4 | 0.00 | 0.00 | 0.00 | 47 | 1017.9 |
| 20260901205530 | 34 | 163 | 1.6 | 8.0 | 0.00 | 0.00 | 0.00 | 47 | 1018.0 |
| 20260901205030 | 34 | 331 | 3.2 | 8.0 | 0.00 | 0.00 | 0.00 | 46 | 1018.1 |
| 20260901204548 | 34 | 331 | 1.6 | 8.0 | 0.00 | 0.00 | 0.00 | 46 | 1018.2 |
| 20260901204032 | 34 | 15 | 1.6 | 14.5 | 0.00 | 0.00 | 0.00 | 46 | 1018.2 |
| 20260901203531 | 35 | 46 | 4.8 | 14.5 | 0.00 | 0.00 | 0.00 | 47 | 1018.3 |
| 20260901203049 | 35 | 44 | 4.8 | 16.1 | 0.00 | 0.00 | 0.00 | 47 | 1018.2 |
| 20260901202532 | 35 | 50 | 6.4 | 16.1 | 0.00 | 0.00 | 0.00 | 47 | 1018.3 |
| 20260901202031 | 34 | 311 | 3.2 | 9.7 | 0.00 | 0.00 | 0.00 | 48 | 1018.4 |
| 20260901201546 | 34 | 0 | 4.8 | 11.3 | 0.00 | 0.00 | 0.00 | 48 | 1018.3 |
| 20260901201030 | 34 | 193 | 1.6 | 11.3 | 0.00 | 0.00 | 0.00 | 48 | 1018.4 |
| 20260901200529 | 33 | 308 | 1.6 | 9.7 | 0.00 | 0.00 | 0.00 | 49 | 1018.6 |
| 20260901200100 | 33 | 0 | 1.6 | 8.0 | 0.00 | 0.00 | 0.00 | 48 | 1018.6 |
| 20260901195532 | 33 | 265 | 1.6 | 8.0 | 0.00 | 0.00 | 0.00 | 48 | 1018.6 |
| 20260901195034 | 33 | 167 | 1.6 | 8.0 | 0.00 | 0.00 | 0.00 | 49 | 1018.6 |
| 20260901194601 | 33 | 165 | 3.2 | 6.4 | 0.00 | 0.00 | 0.00 | 47 | 1018.6 |
| 20260901194029 | 33 | 0 | 0.0 | 4.8 | 0.00 | 0.00 | 0.00 | 47 | 1018.7 |
| 20260901193531 | 34 | 334 | 1.6 | 4.8 | 0.00 | 0.00 | 0.00 | 49 | 1018.8 |
| 20260901193108 | 34 | 0 | 0.0 | 9.7 | 0.00 | 0.00 | 0.00 | 49 | 1018.9 |
| 20260901192530 | 34 | 335 | 3.2 | 14.5 | 0.00 | 0.00 | 0.00 | 49 | 1018.9 |
| 20260901192030 | 35 | 342 | 4.8 | 14.5 | 0.00 | 0.00 | 0.00 | 48 | 1018.9 |
| 20260901191546 | 35 | 32 | 1.6 | 6.4 | 0.00 | 0.00 | 0.00 | 48 | 1019.1 |
| 20260901191032 | 35 | 11 | 3.2 | 8.0 | 0.00 | 0.00 | 0.00 | 48 | 1019.1 |
| 20260901190530 | 34 | 290 | 3.2 | 8.0 | 0.00 | 0.00 | 0.00 | 49 | 1019.2 |
| 20260901190052 | 33 | 360 | 3.2 | 8.0 | 0.00 | 0.00 | 0.00 | 49 | 1019.2 |
| 20260901185534 | 33 | 0 | 1.6 | 9.7 | 0.00 | 0.00 | 0.00 | 49 | 1019.2 |